Location: Ch?enovice
(49.7164°N, 15.2160°E)
Time: 11:45:25
(UTC+00:00)

USA 267 - Pass Details

Date: 13 November 2025
Orbit: 1100 x 1108 km, 123.0° (Epoch: 21 November)

Event Time Altitude Azimuth Distance (km) Brightness Sun altitude
Rises 04:45:00 0° 61° (ENE) 3,925 7.0 -13.4°
Reaches altitude 10° 04:47:30 10° 58° (ENE) 2,965 6.2 -13.0°
Maximum altitude 04:53:55 61° 340° (NNW) 1,237 3.4 -12.0°
Enters shadow 05:00:08 11° 263° (W) 2,887 4.9 -11.0°
